| time (UTC) | temp F | wind direction | speed MPH | gust MPH | rain 1hr in | rain 24hr in | rain mn in | humidity % | barometer mb |
| 20260906161510 | 91 | 94 | 5.0 | 8.0 | 0.00 | 0.20 | 0.00 | 52 | 1017.3 |
| 20260906160010 | 91 | 56 | 6.0 | 9.0 | 0.00 | 0.20 | 0.00 | 54 | 1017.4 |
| 20260906154532 | 90 | 76 | 5.0 | 8.0 | 0.00 | 0.20 | 0.00 | 54 | 1017.3 |
| 20260906153030 | 89 | 99 | 3.0 | 6.0 | 0.00 | 0.20 | 0.00 | 58 | 1017.2 |
| 20260906151527 | 88 | 104 | 4.0 | 10.0 | 0.00 | 0.20 | 0.00 | 58 | 1017.3 |
| 20260906150031 | 87 | 79 | 3.0 | 9.0 | 0.00 | 0.20 | 0.00 | 59 | 1017.1 |
| 20260906144519 | 86 | 105 | 5.0 | 9.0 | 0.00 | 0.20 | 0.00 | 62 | 1017.2 |
| 20260906143017 | 85 | 107 | 5.0 | 8.0 | 0.00 | 0.20 | 0.00 | 63 | 1017.0 |
| 20260906141511 | 84 | 98 | 4.0 | 7.0 | 0.00 | 0.20 | 0.00 | 65 | 1017.0 |
| 20260906140042 | 83 | 108 | 4.0 | 6.0 | 0.00 | 0.20 | 0.00 | 65 | 1017.0 |
| 20260906134527 | 82 | 131 | 2.0 | 3.0 | 0.00 | 0.20 | 0.00 | 68 | 1016.9 |
| 20260906133026 | 82 | 96 | 3.0 | 5.0 | 0.00 | 0.20 | 0.00 | 66 | 1016.8 |
| 20260906131532 | 81 | 122 | 3.0 | 5.0 | 0.00 | 0.20 | 0.00 | 68 | 1016.6 |
| 20260906130020 | 78 | 110 | 1.0 | 6.0 | 0.00 | 0.20 | 0.00 | 72 | 1016.6 |
| 20260906124516 | 76 | 96 | 3.0 | 5.0 | 0.00 | 0.20 | 0.00 | 75 | 1016.5 |
| 20260906123037 | 76 | 103 | 3.0 | 5.0 | 0.00 | 0.20 | 0.00 | 75 | 1016.2 |
| 20260906121535 | 76 | 100 | 3.0 | 4.0 | 0.00 | 0.20 | 0.00 | 73 | 1016.2 |
| 20260906120033 | 77 | 96 | 3.0 | 4.0 | 0.00 | 0.20 | 0.00 | 72 | 1016.3 |
| 20260906114533 | 77 | 123 | 3.0 | 4.0 | 0.00 | 0.20 | 0.00 | 70 | 1016.0 |
| 20260906113037 | 76 | 132 | 3.0 | 4.0 | 0.00 | 0.20 | 0.00 | 74 | 1016.0 |
| 20260906111524 | 76 | 107 | 3.0 | 3.0 | 0.00 | 0.20 | 0.00 | 75 | 1015.8 |
| 20260906110020 | 76 | 98 | 2.0 | 3.0 | 0.00 | 0.20 | 0.00 | 74 | 1015.7 |
| 20260906104535 | 76 | 98 | 1.0 | 2.0 | 0.00 | 0.20 | 0.00 | 73 | 1015.8 |
| 20260906103033 | 77 | 108 | 2.0 | 3.0 | 0.00 | 0.20 | 0.00 | 71 | 1015.7 |
| 20260906101508 | 78 | 117 | 0.0 | 3.0 | 0.00 | 0.20 | 0.00 | 69 | 1015.5 |
| 20260906100008 | 78 | 114 | 3.0 | 3.0 | 0.00 | 0.20 | 0.00 | 69 | 1015.5 |
| 20260906094505 | 78 | 108 | 3.0 | 4.0 | 0.00 | 0.20 | 0.00 | 68 | 1015.3 |
| 20260906093023 | 78 | 104 | 2.0 | 3.0 | 0.00 | 0.20 | 0.00 | 69 | 1015.2 |
| 20260906091512 | 78 | 104 | 2.0 | 3.0 | 0.00 | 0.20 | 0.00 | 68 | 1015.1 |
| 20260906090018 | 78 | 110 | 2.0 | 4.0 | 0.00 | 0.20 | 0.00 | 67 | 1014.9 |
| 20260906084518 | 79 | 130 | 2.0 | 4.0 | 0.00 | 0.20 | 0.00 | 67 | 1014.8 |
| 20260906083021 | 79 | 113 | 3.0 | 5.0 | 0.00 | 0.20 | 0.00 | 68 | 1014.8 |
| 20260906081507 | 79 | 101 | 3.0 | 5.0 | 0.00 | 0.20 | 0.00 | 68 | 1014.6 |
| 20260906080013 | 78 | 114 | 3.0 | 5.0 | 0.00 | 0.20 | 0.00 | 69 | 1014.8 |
| 20260906074532 | 78 | 107 | 4.0 | 5.0 | 0.00 | 0.20 | 0.00 | 70 | 1014.9 |
| 20260906073014 | 79 | 108 | 4.0 | 5.0 | 0.00 | 0.20 | 0.00 | 70 | 1015.0 |
| 20260906071514 | 79 | 97 | 3.0 | 5.0 | 0.00 | 0.20 | 0.00 | 69 | 1015.2 |
| 20260906070020 | 79 | 90 | 3.0 | 4.0 | 0.00 | 0.20 | 0.00 | 68 | 1015.2 |
| 20260906064514 | 80 | 82 | 3.0 | 4.0 | 0.00 | 0.20 | 0.00 | 67 | 1015.4 |
| 20260906063011 | 80 | 101 | 3.0 | 4.0 | 0.00 | 0.20 | 0.00 | 67 | 1015.5 |
| 20260906061519 | 80 | 94 | 2.0 | 3.0 | 0.00 | 0.20 | 0.00 | 66 | 1015.6 |
| 20260906060021 | 80 | 89 | 2.0 | 3.0 | 0.00 | 0.20 | 0.00 | 66 | 1015.5 |
| 20260906054519 | 80 | 98 | 3.0 | 3.0 | 0.00 | 0.20 | 0.00 | 67 | 1015.6 |
| 20260906053020 | 80 | 98 | 2.0 | 4.0 | 0.00 | 0.20 | 0.00 | 67 | 1015.5 |
| 20260906051522 | 80 | 103 | 3.0 | 4.0 | 0.00 | 0.20 | 0.00 | 68 | 1015.5 |
| 20260906050013 | 79 | 98 | 2.0 | 3.0 | 0.00 | 0.20 | 0.00 | 69 | 1015.6 |
| 20260906044512 | 79 | 93 | 3.0 | 4.0 | 0.00 | 0.20 | 0.20 | 69 | 1015.5 |
| 20260906043023 | 79 | 98 | 3.0 | 4.0 | 0.00 | 0.20 | 0.20 | 68 | 1015.7 |
| 20260906041536 | 80 | 103 | 4.0 | 6.0 | 0.00 | 0.20 | 0.20 | 66 | 1015.6 |
| 20260906040024 | 80 | 113 | 3.0 | 5.0 | 0.00 | 0.20 | 0.20 | 67 | 1015.6 |
| 20260906034523 | 80 | 91 | 3.0 | 5.0 | 0.00 | 0.20 | 0.20 | 67 | 1015.5 |
| 20260906033023 | 80 | 106 | 3.0 | 4.0 | 0.00 | 0.20 | 0.20 | 66 | 1015.4 |
| 20260906031512 | 80 | 92 | 3.0 | 4.0 | 0.00 | 0.20 | 0.20 | 67 | 1015.2 |
| 20260906030012 | 80 | 86 | 4.0 | 5.0 | 0.00 | 0.20 | 0.20 | 68 | 1015.1 |
| 20260906024510 | 80 | 85 | 4.0 | 5.0 | 0.00 | 0.20 | 0.20 | 68 | 1014.8 |
| 20260906023006 | 80 | 89 | 4.0 | 5.0 | 0.00 | 0.20 | 0.20 | 66 | 1014.7 |
| 20260906021515 | 80 | 107 | 5.0 | 6.0 | 0.00 | 0.20 | 0.20 | 67 | 1014.5 |
| 20260906020018 | 79 | 111 | 0.0 | 2.0 | 0.00 | 0.20 | 0.20 | 76 | 1014.2 |
| 20260906014535 | 81 | 111 | 2.0 | 6.0 | 0.00 | 0.20 | 0.20 | 65 | 1014.0 |
| 20260906013023 | 78 | 113 | 4.0 | 7.0 | 0.02 | 0.20 | 0.20 | 71 | 1014.0 |
| 20260906011516 | 80 | 119 | 5.0 | 7.0 | 0.08 | 0.20 | 0.20 | 66 | 1013.8 |
| 20260906010034 | 79 | 108 | 4.0 | 6.0 | 0.20 | 0.20 | 0.20 | 70 | 1014.0 |
| 20260906004518 | 83 | 131 | 5.0 | 7.0 | 0.20 | 0.20 | 0.20 | 60 | 1014.1 |
| 20260906003017 | 82 | 224 | 7.0 | 16.0 | 0.18 | 0.18 | 0.18 | 60 | 1014.2 |
| 20260906001530 | 80 | 314 | 2.0 | 20.0 | 0.12 | 0.12 | 0.12 | 66 | 1015.2 |
| 20260906000024 | 81 | 68 | 15.0 | 24.0 | 0.00 | 0.00 | 0.00 | 63 | 1015.4 |
| 20260905234531 | 83 | 60 | 9.0 | 24.0 | 0.00 | 0.00 | 0.00 | 61 | 1015.0 |
| 20260905233031 | 90 | 50 | 9.0 | 14.0 | 0.00 | 0.00 | 0.00 | 50 | 1014.5 |
| 20260905231540 | 89 | 234 | 4.0 | 6.0 | 0.00 | 0.00 | 0.00 | 54 | 1013.8 |
| 20260905230037 | 90 | 211 | 2.0 | 6.0 | 0.00 | 0.00 | 0.00 | 56 | 1013.8 |
| 20260905224541 | 90 | 322 | 9.0 | 12.0 | 0.00 | 0.00 | 0.00 | 52 | 1014.1 |
| 20260905223037 | 91 | 181 | 6.0 | 9.0 | 0.00 | 0.00 | 0.00 | 46 | 1013.7 |
| 20260905221526 | 89 | 165 | 6.0 | 36.0 | 0.00 | 0.00 | 0.00 | 47 | 1013.7 |
| 20260905220031 | 97 | 170 | 2.0 | 8.0 | 0.00 | 0.00 | 0.00 | 38 | 1013.7 |
| 20260905214533 | 98 | 6 | 4.0 | 5.0 | 0.00 | 0.00 | 0.00 | 36 | 1013.7 |
| 20260905213031 | 98 | 258 | 3.0 | 6.0 | 0.00 | 0.00 | 0.00 | 35 | 1013.7 |
| 20260905211540 | 97 | 224 | 2.0 | 5.0 | 0.00 | 0.00 | 0.00 | 37 | 1014.0 |
| 20260905210039 | 97 | 291 | 4.0 | 6.0 | 0.00 | 0.00 | 0.00 | 37 | 1014.2 |
| 20260905204526 | 98 | 320 | 6.0 | 9.0 | 0.00 | 0.00 | 0.00 | 36 | 1014.5 |
| 20260905203037 | 98 | 283 | 7.0 | 11.0 | 0.00 | 0.00 | 0.00 | 36 | 1014.6 |
| 20260905201534 | 98 | 91 | 1.0 | 7.0 | 0.00 | 0.00 | 0.00 | 37 | 1014.8 |
| 20260905200020 | 97 | 153 | 5.0 | 8.0 | 0.00 | 0.00 | 0.00 | 36 | 1014.8 |
| 20260905194518 | 96 | 174 | 3.0 | 6.0 | 0.00 | 0.00 | 0.00 | 38 | 1015.1 |
| 20260905193021 | 95 | 123 | 2.0 | 4.0 | 0.00 | 0.00 | 0.00 | 40 | 1015.3 |
| 20260905191523 | 96 | 36 | 3.0 | 7.0 | 0.00 | 0.00 | 0.00 | 39 | 1015.5 |
| 20260905190027 | 97 | 56 | 0.0 | 6.0 | 0.00 | 0.00 | 0.00 | 39 | 1015.6 |
| 20260905184530 | 96 | 11 | 1.0 | 6.0 | 0.00 | 0.00 | 0.00 | 40 | 1016.1 |
| 20260905183029 | 96 | 13 | 3.0 | 9.0 | 0.00 | 0.00 | 0.00 | 40 | 1016.2 |
| 20260905181525 | 95 | 330 | 3.0 | 8.0 | 0.00 | 0.00 | 0.00 | 42 | 1016.5 |
| 20260905180020 | 94 | 345 | 4.0 | 10.0 | 0.00 | 0.00 | 0.00 | 42 | 1016.6 |
| 20260905174514 | 95 | 330 | 5.0 | 7.0 | 0.00 | 0.00 | 0.00 | 41 | 1016.8 |
| 20260905173031 | 95 | 258 | 6.0 | 12.0 | 0.00 | 0.00 | 0.00 | 42 | 1017.0 |
| 20260905171530 | 94 | 330 | 3.0 | 8.0 | 0.00 | 0.00 | 0.00 | 43 | 1017.1 |
| 20260905170030 | 94 | 298 | 5.0 | 9.0 | 0.00 | 0.00 | 0.00 | 43 | 1017.2 |
| 20260905164530 | 94 | 349 | 3.0 | 7.0 | 0.00 | 0.00 | 0.00 | 44 | 1017.4 |
| 20260905163027 | 93 | 325 | 4.0 | 7.0 | 0.00 | 0.00 | 0.00 | 46 | 1017.3 |